DELTA 1 DEB, 13533

Orbit data source: Space-Track

DELTA 1 DEB, 13533 is space debris in LEO originally from a launch on Thu, 29 Jul 1976 UTC launched from the Air Force Western Test Range (AFWTR). Debris objects in space refer to the collection of defunct objects orbiting the Earth. Examples of debris include non-operational satellites, rocket bodies, and fragments generated from explosions, collisions, or faulty payload assembly.

Loading next visibility...
Identifier
13533, 1976-077EF
Orbit
LEO
Country
Flag of USUS
Related business
Manufacturer
Unknown
Mission
Spacecraft
Bus & Motor
Unknown
Mass
Unknown
Launch date (UTC)
1976-07-29 (50 years ago)
Launch vehicle
Unknown
Launch site
Air Force Western Test Range (AFWTR)
Object type
Payload
Rocket body
Debris
Shape & HBR
Unknown shape, 1.1 m
Radar Cross Section
Medium (>0.1 m² and <1 m²)

Expand to show TLE details & history
Last TLE update: 1 day ago

TLE from 1 day ago
0 DELTA 1 DEB
1 13533U 76077EF  26255.32089689  .00000311  00000-0  49024-2 0  9993
2 13533 101.8714 204.1518 0361071 129.2468  25.2996 11.74583673 45546
Epoch: 2026-09-12T07:42Z
TLE epoch observation values (Epoch: 2026-09-12T07:42:05.491Z)
Latitude
23.09682°
Longitude
-77.58453°
Altitude
1,534.252 km
Speed
7.215 km/s
True Right ascension
01h 57m 04s
True Declination
22° 59' 07"
Sunlit
Object was in full shadow at epoch
Visualization orbit readout
Latitude
Unknown
Longitude
Unknown
Altitude
Unknown
Speed
Unknown
Apparent Right ascension
Unknown
Apparent Declination
Unknown
Sunlit
N/A
Visualization observer readout
Local Sidereal Time
02:28:41
Azimuth
Unknown
Elevation
Unknown
Doppler factor
Unknown
Orbital elements
Apogee altitude
2,089.436 km
Perigee altitude
1,499.266 km
Semi-major axis
8,172.488 km
Eccentricity
0.03611
Inclination
101.8714°
RAAN
204.1518°
Arg. of periapsis
129.2468°
True anomaly
27.14256°
Mean anomaly
25.2996°
Eccentric anomaly
26.21342°
Mean motion
2.93773 °/min
Orbital period
122.54 mins
BSTAR
0.0049024
Loading maneuver chart data...
Computing Atmospheric mass density...
Loading historical data...
Loading historical data...
Loading historical data...
Loading historical data...
Loading historical data...
Loading historical data...
Loading historical data...

Documentation

Showing up to 5 results
|